Terminal Aerodrome Forecast
Issued by NWS Salt Lake City, UT

Home | Current Version | Previous Version | Text Only | Print | Product List | Glossary On
Versions: 1 2 3 4 5 6 7 8 9 10 11 12 13 14 15 16 17 18 19 20 21 22 23 24 25 26 27 28
000
FTUS45 KSLC 251120
TAFCDC
TAF
KCDC 251120Z 2512/2612 20010KT P6SM FEW120
     FM251600 21017G25KT P6SM FEW080 SCT120
     FM252000 22015G23KT P6SM VCSH SCT080 BKN120
     FM260300 20009KT P6SM SCT080 BKN120=

USA.gov is the U.S. government's official web portal to all federal, state and local government web resources and services.